Total_Precipitation_Accumulation
1.27 1.51 1.86 2.30 2.66 2.91 3.26 3.42 3.67 3.97 4.13 4.15 3.94 3.75 3.65 3.78 3.76 3.44 3.15 3.09 2.93 2.81 2.97 2.96 2.77 2.55 2.41 2.27 2.17 2.09 2.01 1.97 1.98 1.94 1.76 1.59 1.39 1.19 1.05 0.96 0.88 0.80 0.71
1.11 1.37 1.78 2.02 2.30 2.62 2.88 3.20 3.32 3.67 3.81 3.73 3.74 3.67 3.66 3.73 3.79 3.74 3.55 3.42 3.29 3.07 2.95 2.97 2.94 2.78 2.60 2.47 2.38 2.32 2.29 2.16 2.09 2.06 2.07 2.00 1.91 1.52 1.18 1.08 1.02 0.94 0.90
0.96 1.17 1.53 1.85 2.00 2.30 2.68 2.86 3.02 3.28 3.60 3.74 3.96 4.11 4.11 3.94 3.79 3.69 3.71 3.64 3.60 3.44 3.14 2.98 3.02 3.01 2.85 2.64 2.54 2.47 2.50 2.55 2.46 2.23 2.32 2.20 1.90 1.60 1.36 1.17 1.08 1.02 1.00
0.90 1.05 1.18 1.48 1.72 1.91 2.38 2.77 3.02 3.22 3.41 3.81 3.94 3.88 3.73 3.50 3.27 3.36 3.48 3.59 3.64 3.64 3.41 3.24 3.22 3.14 3.01 2.89 2.84 2.73 2.69 2.75 2.78 2.65 2.38 2.15 1.83 1.70 1.55 1.31 1.16 1.10 1.03
0.99 1.04 1.11 1.27 1.48 1.67 2.07 2.52 2.82 3.21 3.48 3.63 3.76 3.88 3.66 3.38 3.30 3.30 3.37 3.35 3.39 3.50 3.52 3.40 3.42 3.34 3.21 3.09 3.07 3.02 2.96 2.90 2.86 2.76 2.62 2.48 2.17 1.85 1.73 1.54 1.33 1.30 1.19
1.02 1.01 1.08 1.22 1.42 1.56 1.80 2.22 2.53 2.75 3.11 3.46 3.53 3.62 3.61 3.53 3.45 3.26 3.20 3.25 3.27 3.33 3.41 3.46 3.43 3.40 3.37 3.27 3.18 3.11 3.06 2.98 2.86 2.79 2.64 2.57 2.47 2.21 2.05 1.84 1.57 1.54 1.45
0.97 0.97 1.05 1.20 1.41 1.59 1.74 1.91 2.14 2.31 2.56 2.90 3.13 3.22 3.37 3.45 3.31 3.17 3.01 2.99 3.03 3.04 3.10 3.21 3.28 3.30 3.29 3.33 3.31 3.25 3.13 3.03 2.95 2.83 2.69 2.56 2.41 2.28 2.31 2.27 1.99 1.76 1.58
0.92 0.96 0.98 1.07 1.24 1.45 1.65 1.73 1.87 2.01 2.20 2.41 2.60 2.84 3.04 3.25 3.25 3.14 2.93 2.83 2.77 2.76 2.91 2.98 2.94 2.97 3.06 3.17 3.26 3.24 3.09 2.97 2.86 2.73 2.61 2.55 2.38 2.32 2.37 2.50 2.61 2.47 2.04
0.90 0.91 0.92 0.96 1.11 1.26 1.47 1.58 1.70 1.83 1.95 2.11 2.29 2.53 2.69 2.82 2.90 2.99 2.91 2.82 2.74 2.69 2.66 2.69 2.69 2.63 2.68 2.82 2.99 3.03 2.97 2.88 2.76 2.63 2.53 2.48 2.38 2.35 2.37 2.50 2.74 3.01 2.78
0.87 0.86 0.90 0.97 1.07 1.14 1.28 1.46 1.57 1.66 1.73 1.85 1.98 2.13 2.35 2.57 2.67 2.79 2.75 2.66 2.66 2.67 2.59 2.46 2.43 2.39 2.39 2.47 2.60 2.65 2.63 2.66 2.60 2.49 2.41 2.32 2.23 2.25 2.29 2.37 2.47 2.66 2.78
0.92 0.92 0.96 1.05 1.14 1.13 1.20 1.38 1.50 1.63 1.69 1.74 1.81 1.89 1.98 2.15 2.35 2.54 2.63 2.55 2.58 2.61 2.56 2.41 2.34 2.28 2.21 2.21 2.27 2.26 2.31 2.36 2.37 2.38 2.33 2.17 2.05 2.12 2.13 2.15 2.21 2.28 2.40
0.91 0.97 1.03 1.04 1.07 1.18 1.26 1.35 1.43 1.58 1.70 1.76 1.77 1.82 1.88 1.94 2.08 2.20 2.41 2.46 2.54 2.54 2.56 2.48 2.35 2.25 2.14 2.09 2.10 2.06 2.04 2.05 2.07 2.08 2.14 2.09 1.98 1.96 2.00 2.06 2.02 1.96 1.95
0.92 0.91 0.99 1.06 1.06 1.14 1.33 1.43 1.47 1.54 1.62 1.74 1.81 1.80 1.77 1.77 1.84 1.98 2.15 2.24 2.31 2.35 2.39 2.48 2.40 2.25 2.14 2.03 1.98 1.92 1.89 1.88 1.83 1.83 1.90 1.94 1.97 1.97 1.93 1.94 1.91 1.85 1.82
0.92 0.88 0.94 1.01 1.05 1.09 1.21 1.32 1.43 1.45 1.56 1.69 1.80 1.84 1.80 1.76 1.73 1.84 1.98 2.09 2.13 2.20 2.20 2.27 2.36 2.36 2.29 2.17 2.05 1.97 1.91 1.87 1.81 1.77 1.82 1.82 1.80 1.76 1.73 1.79 1.75 1.76 1.83
0.87 0.88 0.91 0.95 0.98 0.96 0.98 1.09 1.24 1.35 1.42 1.58 1.76 1.82 1.86 1.93 1.95 1.91 1.93 1.97 2.00 2.08 2.10 2.13 2.24 2.28 2.32 2.29 2.19 2.08 2.01 1.98 1.95 1.86 1.83 1.82 1.86 1.76 1.69 1.70 1.71 1.75 1.87
0.86 0.84 0.84 0.91 0.94 0.94 0.95 0.97 1.06 1.21 1.29 1.41 1.56 1.66 1.76 1.89 2.05 2.09 2.06 2.05 2.00 2.00 2.07 2.09 2.16 2.21 2.21 2.45 2.44 2.23 2.14 2.07 1.95 1.84 1.72 1.73 1.85 1.82 1.80 1.76 1.73 1.80 1.95
0.85 0.82 0.83 0.89 0.88 0.88 0.94 0.98 0.98 1.10 1.23 1.28 1.34 1.46 1.63 1.72 1.85 2.06 2.18 2.15 2.12 2.14 2.15 2.20 2.24 2.25 2.35 2.46 2.28 2.24 2.07 2.04 1.93 1.78 1.67 1.63 1.62 1.72 1.58 1.64 1.71 1.70 1.79
0.78 0.81 0.84 0.89 0.86 0.84 0.90 0.92 0.92 1.00 1.16 1.26 1.33 1.46 1.56 1.63 1.76 1.96 2.15 2.25 2.26 2.33 2.33 2.31 2.31 2.29 2.32 2.36 2.22 2.20 2.01 1.92 1.81 1.66 1.52 1.48 1.47 1.52 1.63 1.72 1.80 1.66 1.53
0.79 0.82 0.88 0.93 0.88 0.87 0.96 0.96 0.93 0.98 1.08 1.19 1.28 1.37 1.51 1.60 1.69 1.86 2.04 2.16 2.23 2.32 2.37 2.28 2.20 2.11 2.10 2.16 2.04 2.05 1.93 1.93 1.80 1.67 1.57 1.50 1.40 1.55 1.78 1.87 1.89 1.69 1.48
0.78 0.82 0.86 0.88 0.87 0.94 1.01 1.04 1.06 1.05 1.15 1.21 1.25 1.27 1.39 1.53 1.62 1.73 1.88 2.03 2.12 2.15 2.13 2.08 2.01 1.92 1.88 2.00 1.90 1.92 1.92 1.93 1.79 1.68 1.62 1.68 1.58 1.69 1.85 1.81 1.84 1.73 1.45
0.73 0.81 0.89 0.95 0.99 1.07 1.12 1.13 1.14 1.18 1.22 1.24 1.27 1.28 1.33 1.47 1.57 1.58 1.63 1.76 1.84 1.85 1.84 1.78 1.78 1.77 1.79 1.86 1.79 1.78 1.80 1.86 1.84 1.77 1.65 1.62 1.82 1.88 1.92 1.81 1.62 1.61 1.64
0.71 0.80 0.91 0.99 1.02 1.07 1.13 1.13 1.18 1.26 1.25 1.24 1.27 1.33 1.38 1.42 1.48 1.48 1.47 1.50 1.56 1.63 1.66 1.59 1.59 1.65 1.71 1.78 1.81 1.82 1.85 1.88 1.82 1.71 1.53 1.56 1.85 1.87 1.84 1.70 1.70 1.81 1.75
0.76 0.79 0.84 0.91 0.96 1.06 1.16 1.21 1.21 1.23 1.25 1.26 1.28 1.32 1.35 1.39 1.45 1.47 1.44 1.45 1.50 1.55 1.62 1.53 1.49 1.50 1.50 1.60 1.79 1.82 1.87 1.88 1.75 1.66 1.71 1.75 1.79 1.75 1.71 1.76 1.76 1.70 1.60
0.79 0.78 0.77 0.82 0.92 1.01 1.10 1.16 1.11 1.12 1.17 1.24 1.27 1.30 1.29 1.34 1.40 1.45 1.46 1.48 1.56 1.54 1.51 1.46 1.41 1.38 1.36 1.35 1.47 1.66 1.75 1.82 1.77 1.77 1.82 1.78 1.72 1.71 1.71 1.80 1.77 1.62 1.61
0.79 0.77 0.77 0.80 0.88 0.93 1.01 1.10 1.11 1.08 1.11 1.16 1.20 1.23 1.27 1.32 1.42 1.48 1.55 1.60 1.63 1.67 1.68 1.53 1.41 1.40 1.42 1.41 1.56 1.66 1.68 1.76 1.86 1.89 1.81 1.73 1.69 1.70 1.67 1.61 1.60 1.63 1.73
0.75 0.72 0.71 0.75 0.80 0.82 0.91 0.99 1.06 1.10 1.12 1.13 1.14 1.20 1.24 1.32 1.39 1.45 1.55 1.67 1.68 1.68 1.66 1.64 1.55 1.47 1.49 1.56 1.62 1.66 1.75 1.88 1.97 1.97 1.88 1.73 1.61 1.59 1.57 1.55 1.54 1.57 1.65